Clarksville, TN

11:27 PM CDT on April 25, 2017 (GMT -0500)
Outlaw

Weather History for KCKV - February, 2013

Change the Weather History Date:

Tuesday, February 26, 2013

  Actual Average Record
Temperature  
Mean Temperature 46 °F 43 °F  
Max Temperature 52 °F 54 °F 78 °F (1981)
Min Temperature 39 °F 32 °F 5 °F (1967)
Degree Days  
Heating Degree Days 20    
Month to date heating degree days  
Since 1 July heating degree days  
Cooling Degree Days 0    
Month to date cooling degree days  
Year to date cooling degree days  
Moisture  
Dew Point 43 °F    
Average Humidity 84    
Maximum Humidity 96    
Minimum Humidity 63    
Precipitation  
Precipitation 0.49 in 0.13 in 2.25 in (1962)
Month to date precipitation 3.90  
Year to date precipitation 7.21  
Sea Level Pressure  
Sea Level Pressure 29.48 in    
Wind  
Wind Speed 13 mph (SSW)    
Max Wind Speed 21 mph    
Max Gust Speed 31 mph    
Visibility 8 miles    
Events Rain    
T = Trace of Precipitation, MM = Missing Value Source: NWS Daily Summary

Daily Weather History Graph

Daily Weather History Graph

Search for Another Location

Airport or City:

Trip Planner

Search our weather history database for the weather conditions in past years. The results will help you decide how hot, cold, wet, or windy it might be!

Date:

Astronomy

Feb. 26, 2013 Rise Set
Actual Time 6:23 AM CST 5:41 PM CST
Civil Twilight 5:57 AM CST 6:07 PM CST
Nautical Twilight 5:27 AM CST 6:37 PM CST
Astronomical Twilight 4:58 AM CST 7:07 PM CST
Moon 6:54 PM CST 6:29 AM CST
Length of Visible Light 12h 09m
Length of Day
11h 17m
Full, 99% of the Moon is Illuminated
Feb 26
Full
Mar 4
Last Quarter
Mar 11
New
Mar 19
First Quarter
Mar 27
Full

Hourly Weather History & Observations

Time (CST) Temp. Windchill Dew Point Humidity Pressure Visibility Wind Dir Wind Speed Gust Speed Precip Events Conditions
12:40 AM 51.8 °F - 42.8 °F 71% 29.47 in 10.0 mi ESE 19.6 mph 25.3 mph 0.00 in   Overcast
12:52 AM 51.1 °F - 44.1 °F 77% 29.46 in 9.0 mi ESE 20.7 mph 28.8 mph 0.00 in Rain Light Rain
1:52 AM 51.1 °F - 46.9 °F 86% 29.41 in 10.0 mi SE 16.1 mph 21.9 mph 0.00 in Rain Light Rain
2:38 AM 51.8 °F - 48.2 °F 88% 29.44 in 5.0 mi SSW 10.4 mph - 0.07 in Rain Rain
2:43 AM 51.8 °F - 48.2 °F 88% 29.45 in 1.8 mi North - - 0.16 in Rain Heavy Rain
2:52 AM 51.1 °F - 48.9 °F 92% 29.44 in 2.0 mi SSW 10.4 mph - 0.19 in Rain Heavy Rain
3:08 AM 51.8 °F - 48.2 °F 88% 29.45 in 2.5 mi South 12.7 mph - 0.06 in Rain Rain
3:15 AM 51.8 °F - 48.2 °F 88% 29.44 in 8.0 mi South 8.1 mph - 0.06 in Rain Light Rain
3:52 AM 50.0 °F - 48.9 °F 96% 29.41 in 7.0 mi ESE 8.1 mph - 0.07 in   Overcast
4:05 AM 50.0 °F - 48.2 °F 94% 29.40 in 5.0 mi ESE 10.4 mph - N/A   Overcast
4:20 AM 50.0 °F - 48.2 °F 94% 29.40 in 3.0 mi SE 10.4 mph - N/A   Overcast
4:36 AM 51.8 °F - 48.2 °F 88% 29.41 in 5.0 mi Variable 5.8 mph - N/A   Overcast
4:52 AM 51.1 °F - 48.9 °F 92% 29.40 in 10.0 mi South 8.1 mph - N/A   Overcast
5:17 AM 51.8 °F - 48.2 °F 88% 29.40 in 4.0 mi South 6.9 mph - 0.04 in Rain Rain
5:44 AM 51.8 °F - 48.2 °F 88% 29.39 in 2.5 mi SSE 6.9 mph - 0.06 in Rain Light Rain
5:52 AM 50.0 °F - 48.9 °F 96% 29.39 in 3.0 mi SSE 8.1 mph - 0.07 in Rain Light Rain
6:04 AM 50.0 °F - 48.2 °F 94% 29.38 in 3.0 mi SSE 8.1 mph - 0.01 in Rain Light Rain
6:52 AM 51.1 °F - 48.9 °F 92% 29.38 in 10.0 mi South 5.8 mph - 0.06 in Rain Light Rain
6:59 AM 51.8 °F - 48.2 °F 88% 29.38 in 10.0 mi South 4.6 mph - 0.00 in   Overcast
7:08 AM 51.8 °F - 48.2 °F 88% 29.38 in 10.0 mi South 6.9 mph - 0.00 in   Overcast
7:42 AM 51.8 °F - 48.2 °F 88% 29.39 in 10.0 mi South 15.0 mph 25.3 mph 0.00 in   Overcast
7:52 AM 51.1 °F - 46.9 °F 86% 29.39 in 10.0 mi South 15.0 mph 24.2 mph 0.00 in   Overcast
8:34 AM 51.8 °F - 48.2 °F 88% 29.40 in 10.0 mi South 11.5 mph - 0.00 in Rain Light Rain
9:14 AM 51.8 °F - 48.2 °F 88% 29.40 in 10.0 mi South 10.4 mph - 0.00 in Rain Light Rain
9:52 AM 50.0 °F - 46.9 °F 89% 29.41 in 3.0 mi WSW 10.4 mph - 0.03 in Rain Light Rain
10:21 AM 48.2 °F - 46.4 °F 93% 29.42 in 9.0 mi SW 11.5 mph - 0.00 in Rain Light Rain
10:36 AM 48.2 °F - 46.4 °F 93% 29.42 in 2.0 mi WSW 9.2 mph - 0.03 in Rain Rain
10:45 AM 48.2 °F - 46.4 °F 93% 29.42 in 9.0 mi SW 9.2 mph - 0.04 in Rain Light Rain
10:52 AM 48.9 °F - 46.0 °F 90% 29.42 in 10.0 mi SW 6.9 mph - 0.04 in   Overcast
11:52 AM 52.0 °F - 42.1 °F 69% 29.42 in 10.0 mi SW 12.7 mph 21.9 mph N/A   Overcast
12:28 PM 48.2 °F - 39.2 °F 71% 29.43 in 10.0 mi WSW 11.5 mph 21.9 mph N/A   Overcast
12:40 PM 48.2 °F - 39.2 °F 71% 29.43 in 10.0 mi WSW 15.0 mph 21.9 mph N/A   Overcast
12:52 PM 48.9 °F - 37.9 °F 66% 29.44 in 10.0 mi SW 13.8 mph 19.6 mph N/A   Overcast
1:36 PM 46.4 °F 40.1 °F 37.4 °F 71% 29.46 in 10.0 mi SW 15.0 mph 23.0 mph 0.00 in Rain Light Rain
2:06 PM 46.4 °F 39.5 °F 37.4 °F 71% 29.47 in 10.0 mi WSW 17.3 mph 26.5 mph 0.00 in   Overcast
2:52 PM 48.0 °F - 37.0 °F 66% 29.48 in 10.0 mi WSW 10.4 mph - 0.00 in   Mostly Cloudy
3:52 PM 46.9 °F - 35.1 °F 63% 29.50 in 10.0 mi SW 19.6 mph 26.5 mph N/A   Overcast
4:42 PM 44.6 °F 38.8 °F 37.4 °F 76% 29.53 in 10.0 mi SW 11.5 mph 21.9 mph 0.00 in Rain Light Rain
4:52 PM 43.0 °F 35.1 °F 37.9 °F 82% 29.54 in 6.0 mi WSW 17.3 mph 31.1 mph 0.01 in Rain Light Rain
5:10 PM 42.8 °F 35.4 °F 37.4 °F 81% 29.55 in 10.0 mi SW 15.0 mph 24.2 mph 0.00 in   Overcast
5:39 PM 42.8 °F 36.2 °F 35.6 °F 76% 29.57 in 10.0 mi SW 12.7 mph 23.0 mph 0.00 in   Overcast
5:52 PM 42.1 °F 34.5 °F 36.0 °F 79% 29.58 in 10.0 mi SW 15.0 mph 21.9 mph 0.00 in   Overcast
6:52 PM 41.0 °F 33.5 °F 36.0 °F 82% 29.60 in 10.0 mi WSW 13.8 mph 20.7 mph 0.00 in Rain Light Rain
7:17 PM 41.0 °F 34.7 °F 35.6 °F 81% 29.61 in 10.0 mi SW 10.4 mph - N/A   Overcast
7:52 PM 41.0 °F 34.3 °F 35.1 °F 79% 29.62 in 10.0 mi SW 11.5 mph 20.7 mph N/A   Overcast
8:16 PM 41.0 °F 34.7 °F 35.6 °F 81% 29.63 in 10.0 mi SW 10.4 mph - N/A   Overcast
8:52 PM 41.0 °F 33.1 °F 35.1 °F 79% 29.65 in 10.0 mi SW 15.0 mph - N/A   Overcast
9:52 PM 39.9 °F 32.5 °F 35.1 °F 83% 29.67 in 10.0 mi WSW 12.7 mph 23.0 mph 0.01 in   Overcast
10:39 PM 39.2 °F 32.0 °F 35.6 °F 87% 29.68 in 5.0 mi WSW 11.5 mph 18.4 mph 0.01 in Rain Light Rain
10:52 PM 39.0 °F 31.0 °F 35.1 °F 86% 29.69 in 6.0 mi West 13.8 mph 19.6 mph 0.01 in Rain Light Rain
11:02 PM 39.2 °F 33.0 °F 35.6 °F 87% 29.68 in 10.0 mi WSW 9.2 mph 19.6 mph 0.00 in Rain Light Rain
11:52 PM 39.0 °F 31.8 °F 34.0 °F 82% 29.69 in 10.0 mi WSW 11.5 mph 18.4 mph 0.00 in   Overcast